| time (UTC) | temp C | wind direction | speed KPH | gust KPH | rain 1hr cm | rain 24hr cm | rain mn cm | humidity % | barometer mb |
| 20260505200041 | 25 | 165 | 11.3 | 33.8 | 0.00 | 0.00 | 0.00 | 46 | 1002.9 |
| 20260505194535 | 26 | 194 | 8.0 | 25.7 | 0.00 | 0.00 | 0.00 | 45 | 1003.2 |
| 20260505193037 | 27 | 252 | 14.5 | 41.8 | 0.00 | 0.00 | 0.00 | 37 | 1003.2 |
| 20260505191537 | 26 | 244 | 14.5 | 38.6 | 0.00 | 0.00 | 0.00 | 38 | 1003.3 |
| 20260505190031 | 27 | 231 | 12.9 | 40.2 | 0.00 | 0.00 | 0.00 | 37 | 1003.7 |
| 20260505184534 | 26 | 242 | 11.3 | 37.0 | 0.00 | 0.00 | 0.00 | 39 | 1003.9 |
| 20260505183044 | 26 | 237 | 11.3 | 27.4 | 0.00 | 0.00 | 0.00 | 42 | 1004.2 |
| 20260505181535 | 26 | 267 | 12.9 | 32.2 | 0.00 | 0.00 | 0.00 | 41 | 1004.5 |
| 20260505180041 | 26 | 144 | 8.0 | 29.0 | 0.00 | 0.00 | 0.00 | 42 | 1004.5 |
| 20260505174534 | 26 | 219 | 11.3 | 35.4 | 0.00 | 0.00 | 0.00 | 43 | 1004.7 |
| 20260505173034 | 25 | 336 | 9.7 | 27.4 | 0.00 | 0.00 | 0.00 | 46 | 1004.8 |
| 20260505171531 | 25 | 113 | 11.3 | 33.8 | 0.00 | 0.00 | 0.00 | 45 | 1005.4 |
| 20260505170036 | 24 | 286 | 9.7 | 33.8 | 0.00 | 0.00 | 0.00 | 46 | 1005.3 |
| 20260505164536 | 24 | 249 | 11.3 | 33.8 | 0.00 | 0.00 | 0.00 | 47 | 1005.8 |
| 20260505163033 | 23 | 223 | 11.3 | 25.7 | 0.00 | 0.00 | 0.00 | 48 | 1006.1 |
| 20260505161533 | 22 | 290 | 9.7 | 20.9 | 0.00 | 0.00 | 0.00 | 49 | 1006.5 |
| 20260505153036 | 22 | 217 | 6.4 | 20.9 | 0.00 | 0.00 | 0.00 | 49 | 1006.9 |
| 20260505151532 | 21 | 215 | 8.0 | 19.3 | 0.00 | 0.00 | 0.00 | 51 | 1007.2 |
| 20260505124540 | 15 | 222 | 4.8 | 14.5 | 0.00 | 0.00 | 0.00 | 65 | 1008.2 |
| 20260505123037 | 15 | 228 | 4.8 | 12.9 | 0.00 | 0.00 | 0.00 | 66 | 1007.5 |
| 20260505121539 | 14 | 174 | 1.6 | 12.9 | 0.00 | 0.00 | 0.00 | 66 | 1007.6 |
| 20260505120043 | 13 | 255 | 1.6 | 11.3 | 0.00 | 0.00 | 0.00 | 69 | 1007.8 |
| 20260505114536 | 12 | 205 | 1.6 | 8.0 | 0.00 | 0.00 | 0.00 | 74 | 1008.0 |
| 20260505113032 | 11 | 0 | 1.6 | 11.3 | 0.00 | 0.00 | 0.00 | 78 | 1008.0 |
| 20260505111608 | 10 | 0 | 1.6 | 12.9 | 0.00 | 0.00 | 0.00 | 82 | 1008.1 |
| 20260505101544 | 9 | 132 | 3.2 | 6.4 | 0.00 | 0.00 | 0.00 | 80 | 1008.1 |
| 20260505100038 | 9 | 135 | 3.2 | 14.5 | 0.00 | 0.00 | 0.00 | 80 | 1008.1 |
| 20260505094540 | 9 | 119 | 3.2 | 8.0 | 0.00 | 0.00 | 0.00 | 79 | 1008.1 |
| 20260505093032 | 9 | 105 | 3.2 | 9.7 | 0.00 | 0.00 | 0.00 | 78 | 1008.0 |
| 20260505091536 | 9 | 117 | 3.2 | 9.7 | 0.00 | 0.00 | 0.00 | 78 | 1008.0 |
| 20260505090034 | 10 | 117 | 1.6 | 9.7 | 0.00 | 0.00 | 0.00 | 76 | 1008.1 |
| 20260505084535 | 10 | 0 | 1.6 | 6.4 | 0.00 | 0.00 | 0.00 | 75 | 1008.1 |
| 20260505083031 | 11 | 115 | 1.6 | 6.4 | 0.00 | 0.00 | 0.00 | 73 | 1008.1 |
| 20260505081531 | 11 | 115 | 1.6 | 14.5 | 0.00 | 0.00 | 0.00 | 73 | 1008.3 |
| 20260505080031 | 10 | 119 | 1.6 | 6.4 | 0.00 | 0.00 | 0.00 | 73 | 1008.3 |
| 20260505074536 | 11 | 265 | 3.2 | 12.9 | 0.00 | 0.00 | 0.00 | 72 | 1008.0 |
| 20260505073039 | 11 | 0 | 1.6 | 12.9 | 0.00 | 0.00 | 0.00 | 72 | 1008.0 |
| 20260505071534 | 11 | 213 | 3.2 | 8.0 | 0.00 | 0.00 | 0.00 | 72 | 1008.2 |
| 20260505070031 | 10 | 257 | 0.0 | 12.9 | 0.00 | 0.00 | 0.00 | 72 | 1008.1 |
| 20260505064538 | 11 | 193 | 1.6 | 9.7 | 0.00 | 0.00 | 0.00 | 71 | 1008.3 |
| 20260505063032 | 11 | 119 | 0.0 | 6.4 | 0.00 | 0.00 | 0.00 | 70 | 1008.4 |
| 20260505061535 | 11 | 157 | 1.6 | 11.3 | 0.00 | 0.00 | 0.00 | 68 | 1008.3 |
| 20260505060045 | 12 | 216 | 1.6 | 6.4 | 0.00 | 0.00 | 0.00 | 66 | 1008.3 |
| 20260505054536 | 11 | 176 | 1.6 | 11.3 | 0.00 | 0.00 | 0.00 | 67 | 1008.3 |
| 20260505053035 | 11 | 150 | 3.2 | 11.3 | 0.00 | 0.00 | 0.00 | 67 | 1008.2 |
| 20260505051539 | 11 | 165 | 1.6 | 12.9 | 0.00 | 0.00 | 0.00 | 66 | 1008.2 |
| 20260505041531 | 11 | 213 | 1.6 | 6.4 | 0.00 | 0.00 | 0.00 | 66 | 1007.9 |
| 20260505040038 | 11 | 157 | 1.6 | 8.0 | 0.00 | 0.00 | 0.00 | 66 | 1007.8 |
| 20260505034535 | 12 | 129 | 1.6 | 6.4 | 0.00 | 0.00 | 0.00 | 66 | 1007.5 |
| 20260505033037 | 12 | 134 | 1.6 | 4.8 | 0.00 | 0.00 | 0.00 | 66 | 1007.3 |
| 20260505031532 | 11 | 136 | 1.6 | 4.8 | 0.00 | 0.00 | 0.00 | 67 | 1007.3 |
| 20260505030033 | 12 | 193 | 1.6 | 3.2 | 0.00 | 0.00 | 0.00 | 64 | 1007.3 |
| 20260505024536 | 12 | 217 | 0.0 | 3.2 | 0.00 | 0.00 | 0.00 | 63 | 1007.3 |
| 20260505023035 | 12 | 213 | 0.0 | 3.2 | 0.00 | 0.00 | 0.00 | 65 | 1007.3 |
| 20260505021534 | 12 | 0 | 0.0 | 1.6 | 0.00 | 0.00 | 0.00 | 62 | 1007.3 |
| 20260505020033 | 13 | 219 | 0.0 | 3.2 | 0.00 | 0.00 | 0.00 | 63 | 1007.3 |
| 20260505014534 | 13 | 0 | 0.0 | 3.2 | 0.00 | 0.00 | 0.00 | 60 | 1007.2 |
| 20260505013048 | 14 | 162 | 0.0 | 4.8 | 0.00 | 0.00 | 0.00 | 57 | 1007.1 |
| 20260505011535 | 13 | 239 | 0.0 | 6.4 | 0.00 | 0.00 | 0.00 | 59 | 1006.9 |
| 20260505010036 | 13 | 186 | 0.0 | 4.8 | 0.00 | 0.00 | 0.00 | 60 | 1006.7 |
| 20260505004534 | 14 | 236 | 0.0 | 4.8 | 0.00 | 0.00 | 0.00 | 59 | 1006.5 |
| 20260505003034 | 15 | 0 | 0.0 | 4.8 | 0.00 | 0.00 | 0.00 | 59 | 1006.3 |
| 20260505001532 | 14 | 149 | 0.0 | 4.8 | 0.00 | 0.00 | 0.00 | 58 | 1006.2 |
| 20260505000049 | 14 | 118 | 1.6 | 4.8 | 0.00 | 0.00 | 0.00 | 62 | 1005.9 |
| 20260504234536 | 15 | 121 | 1.6 | 6.4 | 0.00 | 0.00 | 0.00 | 57 | 1005.7 |
| 20260504233036 | 15 | 138 | 1.6 | 3.2 | 0.00 | 0.00 | 0.00 | 59 | 1005.6 |
| 20260504231532 | 16 | 134 | 0.0 | 4.8 | 0.00 | 0.00 | 0.00 | 56 | 1005.5 |
| 20260504230032 | 17 | 254 | 1.6 | 9.7 | 0.00 | 0.00 | 0.00 | 45 | 1005.3 |
| 20260504224531 | 18 | 281 | 1.6 | 6.4 | 0.00 | 0.00 | 0.00 | 45 | 1005.0 |
| 20260504223035 | 18 | 252 | 4.8 | 14.5 | 0.00 | 0.00 | 0.00 | 44 | 1005.0 |
| 20260504221535 | 20 | 275 | 8.0 | 16.1 | 0.00 | 0.00 | 0.00 | 42 | 1005.0 |
| 20260504220041 | 19 | 268 | 4.8 | 12.9 | 0.00 | 0.00 | 0.00 | 44 | 1005.1 |
| 20260504214541 | 19 | 276 | 3.2 | 14.5 | 0.00 | 0.00 | 0.00 | 47 | 1005.1 |
| 20260504213039 | 19 | 235 | 3.2 | 16.1 | 0.00 | 0.00 | 0.00 | 43 | 1005.1 |
| 20260504211536 | 19 | 286 | 11.3 | 27.4 | 0.00 | 0.00 | 0.00 | 45 | 1005.1 |
| 20260504210034 | 19 | 240 | 8.0 | 22.5 | 0.00 | 0.00 | 0.00 | 47 | 1005.0 |
| 20260504204534 | 19 | 261 | 4.8 | 16.1 | 0.00 | 0.00 | 0.00 | 46 | 1005.0 |
| 20260504203036 | 19 | 298 | 6.4 | 22.5 | 0.00 | 0.00 | 0.00 | 46 | 1005.1 |
| 20260504201539 | 19 | 244 | 9.7 | 25.7 | 0.00 | 0.00 | 0.00 | 47 | 1005.1 |